THOR ABLESTAR DEB, 745

Orbit data source: Space-Track

THOR ABLESTAR DEB, 745 is space debris in LEO originally from a launch on Sat, 28 Sep 1963 UTC launched from the Air Force Western Test Range (AFWTR). Debris objects in space refer to the collection of defunct objects orbiting the Earth. Examples of debris include non-operational satellites, rocket bodies, and fragments generated from explosions, collisions, or faulty payload assembly.

Loading next visibility...
Identifier
745, 1963-038E
Orbit
LEO
Country
Flag of USUS
Related business
Manufacturer
Unknown
Mission
Spacecraft
Bus & Motor
Unknown
Mass
Unknown
Launch date (UTC)
1963-09-28 (63 years ago)
Launch vehicle
Unknown
Launch site
Air Force Western Test Range (AFWTR)
Object type
Payload
Rocket body
Debris
Shape & HBR
Unknown shape, 0.1 m
Radar Cross Section
Medium (>0.1 m² and <1 m²)

Expand to show TLE details & history
Last TLE update: 16 hours ago

TLE from 16 hours ago
0 THOR ABLESTAR DEB
1 00745U 63038E   26207.60790837  .00000182  00000-0  24732-3 0  9995
2 00745  89.9870 336.0464 0018587 171.8917 200.9471 13.55619898 96775
Epoch: 2026-07-26T14:35Z
TLE epoch observation values (Epoch: 2026-07-26T14:35:23.283Z)
Latitude
12.7234°
Longitude
172.89891°
Altitude
1,066.767 km
Speed
7.313 km/s
True Right ascension
22h 24m 11s
True Declination
12° 39' 10"
Sunlit
Object was in full shadow at epoch
Visualization orbit readout
Latitude
Unknown
Longitude
Unknown
Altitude
Unknown
Speed
Unknown
Apparent Right ascension
Unknown
Apparent Declination
Unknown
Sunlit
N/A
Visualization observer readout
Local Sidereal Time
19:39:53
Azimuth
Unknown
Elevation
Unknown
Doppler factor
Unknown
Orbital elements
Apogee altitude
1,062.499 km
Perigee altitude
1,034.891 km
Semi-major axis
7,426.832 km
Eccentricity
0.00186
Inclination
89.987°
RAAN
336.0464°
Arg. of periapsis
171.8917°
True anomaly
200.87112°
Mean anomaly
200.9471°
Eccentric anomaly
200.90909°
Mean motion
3.39108 °/min
Orbital period
106.16 mins
BSTAR
0.00024732
Loading maneuver chart data...
Computing Atmospheric mass density...

Documentation

Showing up to 5 results
|